FW1419 Weather Reports


Display with metric or nautical units.
time (UTC)temp
F
wind
direction
speed
MPH
gust
MPH
rain 1hr
in
rain 24hr
in
rain mn
in
humidity
%
barometer
mb
20260509111322 54 315 0.0 0.0 0.00 0.00 0.00 78 1013.4
20260509110814 55 315 0.0 0.0 0.00 0.00 0.00 77 1013.5
20260509110324 55 315 0.0 0.0 0.00 0.00 0.00 77 1013.4
20260509105819 55 315 0.0 0.0 0.00 0.00 0.00 77 1013.4
20260509105330 55 315 0.0 0.0 0.00 0.00 0.00 78 1013.6
20260509104822 55 315 0.0 0.0 0.00 0.00 0.00 79 1013.6
20260509104313 55 315 0.0 0.0 0.00 0.00 0.00 80 1013.5
20260509103823 55 315 0.0 0.0 0.00 0.00 0.00 81 1013.7
20260509103315 55 315 0.0 0.0 0.00 0.00 0.00 83 1013.7
20260509102848 55 315 0.0 0.0 0.00 0.00 0.00 83 1013.7
20260509102318 55 315 0.0 0.0 0.00 0.00 0.00 82 1013.8
20260509101829 55 315 0.0 0.0 0.00 0.00 0.00 82 1013.9
20260509101324 55 315 0.0 0.0 0.00 0.00 0.00 83 1013.9
20260509100814 56 315 0.0 0.0 0.00 0.00 0.00 82 1013.8
20260509100326 56 315 0.0 0.0 0.00 0.00 0.00 82 1013.9
20260509095817 56 315 0.0 0.0 0.00 0.00 0.00 82 1014.0
20260509095327 57 315 0.0 0.0 0.00 0.00 0.00 83 1013.9
20260509094819 57 315 0.0 0.0 0.00 0.00 0.00 83 1013.9
20260509094330 57 315 0.0 0.0 0.00 0.00 0.00 83 1014.0
20260509093820 57 315 0.0 0.0 0.00 0.00 0.00 83 1014.0
20260509093351 57 315 0.0 0.0 0.00 0.00 0.00 83 1014.0
20260509092822 57 315 0.0 0.0 0.00 0.00 0.00 83 1014.1
20260509092333 57 315 0.0 0.0 0.00 0.00 0.00 83 1014.1
20260509091828 57 315 0.0 0.0 0.00 0.00 0.00 82 1014.2
20260509091319 57 315 0.0 0.0 0.00 0.00 0.00 82 1014.3
20260509090811 57 315 0.0 0.0 0.00 0.00 0.00 82 1014.3
20260509090342 57 315 0.0 0.0 0.00 0.00 0.00 83 1014.2
20260509085812 57 315 0.0 0.0 0.00 0.00 0.00 82 1014.3
20260509085324 57 315 0.0 0.0 0.00 0.00 0.00 81 1014.4
20260509084815 58 315 0.0 0.0 0.00 0.00 0.00 82 1014.4
20260509084327 58 315 0.0 0.0 0.00 0.00 0.00 82 1014.4
20260509083837 58 315 0.0 0.0 0.00 0.00 0.00 82 1014.5
20260509083311 58 315 0.0 0.0 0.00 0.00 0.00 82 1014.5
20260509082843 58 315 0.0 0.0 0.00 0.00 0.00 82 1014.5
20260509082313 58 315 0.0 0.0 0.00 0.00 0.00 82 1014.5
20260509081823 58 315 0.0 0.0 0.00 0.00 0.00 80 1014.6
20260509081314 58 315 0.0 0.0 0.00 0.00 0.00 80 1014.7
20260509080824 58 315 0.0 0.0 0.00 0.00 0.00 80 1014.7
20260509080316 58 315 0.0 0.0 0.00 0.00 0.00 79 1014.7
20260509075827 59 315 0.0 0.0 0.00 0.00 0.00 79 1014.8
20260509075320 59 315 0.0 0.0 0.00 0.00 0.00 78 1014.8
20260509074851 59 315 0.0 0.0 0.00 0.00 0.00 78 1014.8
20260509074326 59 315 0.0 0.0 0.00 0.00 0.00 78 1014.9
20260509073815 59 315 0.0 0.0 0.00 0.00 0.00 78 1014.9
20260509073326 60 315 0.0 0.0 0.00 0.00 0.00 77 1014.9
20260509072818 60 315 0.0 0.0 0.00 0.00 0.00 77 1014.9
20260509072330 60 315 0.0 0.0 0.00 0.00 0.00 77 1015.0
20260509071821 60 315 0.0 0.0 0.00 0.00 0.00 77 1014.9
20260509071312 61 315 0.0 0.0 0.00 0.00 0.00 76 1014.8
20260509070824 61 315 0.0 0.0 0.00 0.00 0.00 76 1014.9
20260509070318 61 315 0.0 0.0 0.00 0.00 0.00 76 1015.0
20260509065829 62 315 0.0 0.0 0.00 0.00 0.00 76 1015.0
20260509065340 62 315 0.0 0.0 0.00 0.00 0.00 75 1015.0
20260509064852 62 315 0.0 0.0 0.00 0.00 0.00 75 1015.0
20260509064321 62 315 0.0 0.0 0.00 0.00 0.00 75 1015.0
20260509063813 62 315 0.0 0.0 0.00 0.00 0.00 75 1015.1
20260509063344 62 315 0.0 0.0 0.00 0.00 0.00 74 1015.1
20260509062814 62 315 0.0 0.0 0.00 0.00 0.00 73 1015.1
20260509062346 62 315 0.0 0.0 0.00 0.00 0.00 73 1015.1
20260509061815 63 315 0.0 0.0 0.00 0.00 0.00 72 1015.1
20260509061328 63 315 0.0 0.0 0.00 0.00 0.00 71 1015.1
20260509060823 63 315 0.0 0.0 0.00 0.00 0.00 71 1015.0
20260509060334 63 315 0.0 0.0 0.00 0.00 0.00 71 1015.0
20260509055845 64 315 0.0 0.0 0.00 0.00 0.00 70 1015.1
20260509055315 64 315 0.0 0.0 0.00 0.00 0.00 69 1015.0
20260509054826 64 315 0.0 0.0 0.00 0.00 0.00 68 1015.0
20260509054316 65 315 0.0 0.0 0.00 0.00 0.00 67 1015.0
20260509053828 65 315 0.0 0.0 0.00 0.00 0.00 66 1014.9
20260509053341 66 315 0.0 0.0 0.00 0.00 0.00 65 1015.1
20260509052811 66 315 0.0 1.0 0.00 0.00 0.00 65 1015.1
20260509052343 67 315 0.0 2.0 0.00 0.00 0.00 64 1015.1
20260509051813 67 315 0.0 0.0 0.00 0.00 0.00 64 1015.0
20260509051324 67 315 0.0 3.0 0.00 0.00 0.00 64 1015.0
20260509050840 67 315 1.0 3.0 0.00 0.00 0.00 63 1015.0
20260509050329 68 311 0.0 3.0 0.00 0.00 0.00 62 1014.9
20260509045820 68 310 0.0 0.0 0.00 0.00 0.00 62 1015.1
20260509045312 68 308 0.0 2.0 0.00 0.00 0.00 61 1015.0
20260509044823 68 304 0.0 3.0 0.00 0.00 0.00 61 1015.0
20260509044334 69 307 0.0 3.0 0.00 0.00 0.00 60 1014.9
20260509043823 69 304 2.0 3.0 0.00 0.00 0.00 59 1014.8
20260509043334 70 311 0.0 4.0 0.00 0.00 0.00 58 1014.8
20260509042825 70 302 2.0 5.0 0.00 0.00 0.00 58 1014.8
20260509042315 71 311 2.0 5.0 0.00 0.00 0.00 58 1014.8
20260509041827 71 311 0.0 0.0 0.00 0.00 0.00 57 1014.8
20260509041321 71 311 0.0 0.0 0.00 0.00 0.00 57 1014.7
20260509040813 71 313 0.0 0.0 0.00 0.00 0.00 56 1014.6